Location: DARK SKY Beskydy - Park tmavé oblohy, www.darkskybeskydy.cz
(49.4926°N, 18.5016°E)
Time: 11:37:14
(UTC+02:00)

BlueWalker 3 - Pass Details

Date: 26 June 2024
Orbit: 480 x 491 km, 53.2° (Epoch: 23 July)

Event Time Altitude Azimuth Distance (km) Brightness Sun altitude
Rises 22:00:55 0° 276° (W) 2,541 6.2 -8.2°
Reaches altitude 10° 22:03:09 10° 282° (WNW) 1,660 5.4 -8.4°
Maximum altitude 22:06:46 46° 357° (N) 658 3.0 -8.7°
Drops below altitude 10° 22:10:23 10° 72° (ENE) 1,657 4.4 -9.1°
Sets 22:12:36 0° 79° (ENE) 2,536 5.3 -9.3°
